Regional Weather Roundup
Issued by NWS

Home | Current Version | Previous Version | Text Only | Print | Product List | Glossary Off
Versions: 1 2 3 4 5 6 7 8 9 10 11 12 13 14 15 16 17 18 19 20 21 22 23 24 25 26 27 28 29 30 31 32 33 34 35 36 37 38 39 40 41 42 43 44 45 46 47 48 49 50

000
ASUS43 KLMK 030910
RWRKY
KENTUCKY REGIONAL WEATHER ROUNDUP
NATIONAL WEATHER SERVICE LOUISVILLE KY
500 AM EDT MON AUG 03 2015

NOTE "FAIR" INDICATES FEW OR NO CLOUDS BELOW 12,000 FEET
WITH NO SIGNIFICANT WEATHER AND/OR OBSTRUCTIONS TO VISIBILITY.

KYZ001>023-026-027-061>063-070>075-031000-
WESTERN AND SOUTH CENTRAL KENTUCKY

CITY           SKY/WX    TMP DP  RH WIND       PRES   REMARKS
PADUCAH        CLEAR     74  70  87 SW5       29.87S
HENDERSON      CLEAR     72  64  78 SW6       29.84S
OWENSBORO      CLEAR     71  67  87 S3        29.87S
HOPKINSVILLE   CLEAR     71  64  79 VRB1      29.90R
BOWLING GREEN  CLEAR     67  63  87 CALM      29.91S
GLASGOW        PTCLDY   N/A N/A N/A CALM      29.91S
$$

KYZ024-025-028>034-038-045-046-053-031000-
NORTH CENTRAL KENTUCKY

CITY           SKY/WX    TMP DP  RH WIND       PRES   REMARKS
LOUISVILLE/SDF PTCLDY    73  63  70 SE5       29.87R
LOUISVILLE/LOU CLEAR     72  62  71 S5        29.88S
FORT KNOX      MOCLDY    68  62  82 S3        29.88R
$$

KYZ035>037-039>044-047>052-055>060-089>105-031000-
NORTHEAST KENTUCKY

CITY           SKY/WX    TMP DP  RH WIND       PRES   REMARKS
LEXINGTON      CLEAR     65  61  87 S6        29.91S
COVINGTON      PTCLDY    69  61  75 S8        29.86F
FRANKFORT      CLEAR     66  60  81 CALM      29.89R
$$

KYZ054-064>069-076>088-106>120-031000-
SOUTHEAST KENTUCKY

CITY           SKY/WX    TMP DP  RH WIND       PRES   REMARKS
JACKSON        CLEAR     64  61  90 CALM      29.93S
LONDON         CLEAR     63  59  87 CALM      29.94R
SOMERSET       CLEAR     59  59 100 CALM      29.94S
MIDDLESBORO    CLEAR     59  59  99 CALM      29.96S
MONTICELLO     SUNNY     59  59 100 CALM      29.96R FOG
$$




USA.gov is the U.S. government's official web portal to all federal, state and local government web resources and services.